Home   Weather   Molepolole   Past weeks

Flag for Botswana Past Weather in Molepolole, Botswana — Yesterday and Last 2 Weeks

Now
70 °F

Broken clouds.


Feels Like: 70 °F
Forecast: 50 / 70 °F
Wind: 6 mph from Northeast

Location: Seretse Khama International Airport

Current Time: Apr 24, 2017 at 1:17:22 pm

Latest Report: Apr 24, 2017 at 12:00 pm


Visibility: N/A

Pressure: 30.24 "Hg (26.47 "Hg at 1145m altitude)

Humidity: 53%

Dew Point: 52 °F

Location of MolepololeLocation

Past Weather in Molepolole — Graph

°F

Molepolole Temperature Yesterday

Maximum temperature yesterday: 68 °F (at 12:00 pm)
Minimum temperature yesterday: 59 °F (at 1:00 am)
Average temperature yesterday: 62 °F

High & Low Weather Summary for the Past Weeks

 TemperatureHumidityPressure
High82 °F (Apr 9, 2:00 pm)100% (Apr 13, 10:00 am)30.27 "Hg (Apr 13, 10:00 am)
Low48 °F (Apr 21, 5:00 am)16% (Apr 21, 4:00 pm)29.98 "Hg (Apr 12, 4:00 pm)
Average68 °F70%30.14 "Hg
* Reported Apr 9 12:00 pm — Apr 24 12:00 pm, Molepolole, Weather by CustomWeather, © 2017

Note: Actual official high and low records may vary slightly from our data, if they occured in-between our weather recording intervals... More about our weather records

Advertising

Molepolole Weather History for the Previous 24 Hours

Scroll right to see more
 ConditionsComfort  
Time TempWeatherWind HumidityBarometerVisibility
12:00 pm
Mon, Apr 24
70 °FBroken clouds.6 mph53%30.24 "HgN/A
11:00 am68 °FScattered clouds.6 mph60%30.27 "HgN/A
10:00 am63 °FPartly sunny.5 mph77%30.27 "HgN/A
9:00 am61 °FPartly sunny.3 mph88%30.27 "HgN/A
8:00 am57 °FClear.3 mph100%30.24 "Hg4 mi
7:00 am57 °FClear.3 mph100%30.24 "Hg4 mi
5:00 am55 °FClear.2 mph100%30.21 "Hg3 mi
4:00 am57 °FClear.1 mph100%30.18 "Hg5 mi
2:00 am57 °FClear.1 mph100%30.21 "Hg5 mi
1:00 am57 °FClear.2 mph100%30.21 "Hg5 mi
12:00 am59 °FClear.3 mph94%30.21 "Hg10 mi
9:00 pm
Sun, Apr 23
59 °FPassing clouds.1 mph94%30.21 "HgN/A
8:00 pm59 °FPassing clouds.2 mph94%30.21 "HgN/A
7:00 pm61 °FPassing clouds.7 mph94%30.21 "HgN/A
6:00 pm61 °FPassing clouds.1 mph94%30.18 "HgN/A
5:00 pm63 °FPartly sunny.5 mph83%30.18 "HgN/A
4:00 pm63 °FPartly sunny.5 mph83%30.15 "HgN/A
3:00 pm64 °FPartly sunny.5 mph73%30.15 "HgN/A
2:00 pm64 °FLight rain. Partly sunny.6 mph78%30.18 "HgN/A
1:00 pm64 °FBroken clouds.6 mph78%30.18 "HgN/A
Weather by CustomWeather, © 2017

See weather overviewHow to use our weather pages